ROVANIEMI_(CIV/MIL) current weather conditions

sailwx.info

Wind from 300 at 6 knots

Air temperature 9.0° C
Visibility: greater than 5.4 NM
Dewpoint 1.0° C

Last reported at 2020-Sep-18 16:50 UTC.
Time now 2020-Sep-18 17:51 UTC

Location: N 66°34' E 025°50'.
View on Google Maps.

See reports from other nearby stations

  
Tides and Currents Weather Stations Pressure Air Temp Water Temp Dewpoint Dewpoint Depression Visibility Wind Speed Wind Dir Waves Ship Positions
date/time (UTC)wind fromknots sea level pressurealtimeterstation pressurevisibilityair tempwater tempwave heightnotes
2020-Sep-18 16:50 300 6 5.4 9.0
2020-Sep-18 16:20 300 11 5.411.0
2020-Sep-18 15:50 290 11 gusting 21 5.412.0
2020-Sep-18 15:20 300 9 5.412.0
2020-Sep-18 14:50 290 9 gusting 21 5.412.0
2020-Sep-18 14:20 300 9 5.413.0
2020-Sep-18 13:50 300 11 5.413.0
2020-Sep-18 13:20 290 11 gusting 20 5.413.0
2020-Sep-18 12:50 270 11 5.413.0
2020-Sep-18 12:20 280 8 gusting 19 5.412.0
2020-Sep-18 11:50 280 11 5.410.0
2020-Sep-18 11:20 260 9 5.410.0
2020-Sep-18 10:50 250 9 gusting 20 5.4 9.0
2020-Sep-18 10:20 240 11 5.4 8.0
2020-Sep-18 09:50 240 12 5.4 8.0
2020-Sep-18 09:20 230 13 5.4 7.0
2020-Sep-18 08:50 220 14 gusting 25 5.4 7.0
2020-Sep-18 08:20 220 14 5.4 6.0 Light rain drizzle.
2020-Sep-18 07:50 210 13 5.4 6.0 Light rain.
2020-Sep-18 07:20 200 14 5.4 6.0 Light rain.
2020-Sep-18 06:50 200 15 5.4 6.0 Light rain.
2020-Sep-18 06:20 200 13 5.4 6.0 Light rain.
2020-Sep-18 05:50 190 14 5.4 6.0 Light rain.
2020-Sep-18 05:20 200 15 gusting 27 5.4 6.0 Light rain.
2020-Sep-18 04:50 200 14 5.4 6.0
2020-Sep-18 04:20 200 13 5.4 6.0
2020-Sep-18 03:50 190 13 5.4 5.0
2020-Sep-18 03:20 200 12 5.4 5.0
2020-Sep-18 02:50 200 12 5.4 5.0
2020-Sep-18 02:20 5.4 5.0
2020-Sep-18 01:50 180 6 5.4 4.0
2020-Sep-18 01:20 200 8 5.4 4.0
2020-Sep-18 00:50 210 6 5.4 4.0
2020-Sep-18 00:20 210 6 5.4 4.0
2020-Sep-17 23:50 210 4 5.4 3.0
2020-Sep-17 23:20 220 4 5.4 3.0
2020-Sep-17 22:50 200 5 5.4 3.0
2020-Sep-17 22:20 200 5 5.4 4.0
2020-Sep-17 21:50 210 1 5.4 4.0
2020-Sep-17 21:20 270 4 5.4 3.0
2020-Sep-17 20:50 5.4 5.0
2020-Sep-17 20:20 160 1 5.4 5.0
2020-Sep-17 19:50 240 1 5.4 4.0
2020-Sep-17 19:20 100 0 5.4 4.0
2020-Sep-17 18:50 5.4 4.0
2020-Sep-17 18:20 350 0 5.4 5.0
2020-Sep-17 17:50 010 5 5.4 4.0
2020-Sep-17 17:20 360 4 5.4 5.0
2020-Sep-17 16:50 350 4 5.4 5.0
2020-Sep-17 16:20 010 2 5.4 6.0
2020-Sep-17 15:50 350 4 5.4 7.0
2020-Sep-17 15:20 340 6 5.4 7.0
2020-Sep-17 14:50 360 6 5.4 8.0
2020-Sep-17 14:20 360 5 5.4 9.0
2020-Sep-17 13:50 360 6 5.4 9.0
2020-Sep-17 13:20 010 8 5.4 9.0
2020-Sep-17 12:50 350 7 5.4 9.0
2020-Sep-17 12:20 350 7 5.4 9.0
2020-Sep-17 11:50 010 9 5.4 9.0
2020-Sep-17 11:20 020 7 5.4 9.0
2020-Sep-17 10:50 020 9 5.4 9.0
2020-Sep-17 10:20 360 9 5.4 8.0
2020-Sep-17 09:50 340 11 5.4 8.0
2020-Sep-17 09:20 010 11 5.4 9.0
2020-Sep-17 08:50 020 12 5.4 8.0
2020-Sep-17 08:20 010 12 5.4 7.0
2020-Sep-17 07:50 030 13 gusting 24 5.4 7.0
2020-Sep-17 07:20 020 12 5.4 7.0
2020-Sep-17 06:50 010 12 5.4 6.0
2020-Sep-17 06:20 010 11 5.4 6.0
2020-Sep-17 05:50 010 11 5.4 6.0
2020-Sep-17 05:20 360 8 5.4 5.0
2020-Sep-17 04:50 360 9 5.4 4.0
2020-Sep-17 04:20 360 9 5.4 4.0
2020-Sep-17 03:50 010 7 5.4 4.0
2020-Sep-17 03:20 360 8 5.4 4.0
2020-Sep-17 02:50 360 9 5.4 4.0
2020-Sep-17 02:20 020 12 5.4 5.0
2020-Sep-17 01:50 020 13 5.4 5.0
2020-Sep-17 01:20 010 12 5.4 5.0
2020-Sep-17 00:50 020 12 5.4 4.0
2020-Sep-17 00:20 020 12 5.4 4.0
2020-Sep-16 23:50 010 11 5.4 5.0
2020-Sep-16 23:20 020 12 5.4 5.0
2020-Sep-16 22:50 020 13 5.4 5.0
2020-Sep-16 22:20 030 13 5.4 5.0
2020-Sep-16 21:50 020 13 5.4 5.0
2020-Sep-16 21:20 030 13 5.4 5.0
2020-Sep-16 20:50 020 13 5.4 5.0
2020-Sep-16 20:20 030 13 5.4 5.0
2020-Sep-16 19:50 030 13 5.4 5.0 Light rain.
2020-Sep-16 19:20 030 13 5.4 6.0 Light rain.
2020-Sep-16 18:50 040 13 5.4 6.0 Light rain.
2020-Sep-16 18:20 030 13 5.4 5.0 Light rain.
2020-Sep-16 17:50 030 13 5.4 6.0 Light rain.
2020-Sep-16 17:20 030 12 5.4 6.0 Light rain.